Theta_e
312 312 312 311 311 311 311 311 310 310 310 310 310 310 310 310 310 310 310 310 311 311 310 310 309 309 308 307 306 304 304 304 304 305 306 306 306 306 306 306 305 305
312 312 311 311 311 311 311 311 310 310 310 310 310 310 310 310 310 310 310 310 310 310 310 310 310 309 308 307 306 305 304 303 304 304 305 305 306 306 306 306 306 305
312 312 311 311 311 311 311 311 310 310 310 310 310 310 309 310 310 310 310 310 310 310 310 310 310 309 308 307 306 305 304 304 304 304 305 305 305 306 306 306 306 306
311 311 311 311 311 311 311 310 310 310 310 310 310 310 309 309 309 310 310 310 310 310 310 310 310 309 308 308 307 306 305 304 304 304 305 305 305 305 306 306 306 306
309 309 310 310 311 311 311 310 310 310 310 310 310 309 309 309 309 309 310 310 310 310 310 310 309 309 309 308 307 306 305 304 304 304 304 305 305 305 306 306 306 306
307 307 307 308 309 309 310 310 310 310 310 310 310 310 309 309 309 309 309 309 309 309 309 309 309 309 309 308 307 306 306 305 304 304 304 305 305 305 305 305 306 306
308 307 307 306 307 307 308 309 309 310 310 310 310 310 309 309 309 309 309 309 309 309 309 309 309 308 308 308 307 307 306 305 305 304 304 305 305 305 305 305 305 305
309 309 308 307 306 306 306 307 307 308 309 310 310 310 309 309 309 309 309 309 309 309 309 308 308 308 308 308 307 307 306 306 305 304 304 304 305 305 305 305 305 305
310 310 310 309 308 307 306 306 306 306 307 308 309 309 309 309 309 308 308 308 308 308 308 308 308 308 308 308 307 307 306 306 306 305 304 304 304 305 305 305 305 304
310 310 310 310 310 309 308 307 306 305 305 306 308 309 308 308 308 308 308 308 308 308 308 308 308 308 308 307 307 307 306 306 306 305 305 304 304 304 305 305 305 305
309 309 310 310 310 310 310 308 306 305 305 305 306 308 308 308 308 308 308 308 308 308 308 308 308 308 307 307 307 307 306 306 306 306 305 305 304 304 304 305 305 305
309 309 309 310 310 310 310 309 307 306 305 305 305 307 308 308 308 308 308 308 308 308 308 308 307 307 307 307 307 307 306 306 306 306 306 306 305 305 305 304 305 305
309 309 309 309 310 310 310 309 308 307 305 305 305 305 307 308 308 308 308 308 308 308 307 307 307 307 307 307 307 307 307 306 306 306 306 306 306 305 305 305 305 305
308 308 308 309 309 310 309 308 308 307 306 305 304 305 306 307 307 307 307 308 308 307 307 307 307 307 307 307 307 307 307 307 306 306 306 306 306 306 306 306 306 306
308 308 308 308 308 309 309 308 308 307 306 305 304 305 305 306 307 307 307 307 307 307 307 307 307 307 307 307 307 307 307 307 307 307 306 306 306 306 306 306 306 306
307 308 308 308 308 309 309 309 308 307 306 305 304 304 304 305 306 307 307 306 307 307 307 307 307 307 307 307 307 307 307 307 307 307 307 307 307 306 306 306 306 306
307 307 308 308 308 308 308 308 308 307 306 305 304 304 304 305 306 307 307 306 306 307 307 307 307 307 307 307 307 307 307 307 307 307 307 307 307 307 307 307 307 307
307 307 307 308 308 308 308 308 307 307 306 305 304 304 304 304 305 306 307 306 306 306 306 307 307 307 307 307 307 307 307 307 307 307 307 307 307 307 307 307 307 307
307 307 307 308 308 308 308 308 307 307 306 305 304 304 304 304 304 305 306 306 306 305 306 306 306 307 307 307 307 307 307 307 307 307 308 308 308 308 308 308 308 308
307 307 307 308 308 308 308 308 307 306 306 305 304 304 304 304 304 305 305 306 306 305 305 305 306 306 306 306 306 307 307 307 307 307 308 308 308 309 308 308 308 308
306 307 307 308 309 308 308 307 306 306 306 305 304 304 303 304 304 304 305 306 306 305 305 305 305 305 305 305 306 306 306 306 307 307 308 308 308 308 308 308 308 308
306 306 307 307 308 307 307 307 306 306 305 305 304 303 303 303 304 304 305 306 306 306 305 305 305 305 305 305 305 305 306 306 307 307 307 308 307 308 308 308 308 308
305 306 306 307 307 306 306 306 305 305 305 304 304 303 303 303 304 304 305 305 306 306 306 305 305 305 305 305 305 306 306 306 306 306 307 307 307 307 307 307 307 307
305 306 306 306 306 306 305 305 305 305 305 304 303 303 303 303 304 304 305 306 306 306 306 306 306 305 305 305 305 305 306 306 306 306 306 307 307 307 307 307 307 307
305 305 305 306 305 305 305 305 305 305 304 304 303 303 303 304 304 305 306 306 306 306 306 306 306 306 306 305 305 305 305 305 306 306 306 306 307 307 307 307 307 307
304 304 304 304 304 304 304 304 304 304 304 303 303 303 304 305 305 306 306 306 306 306 306 306 305 305 305 305 305 305 305 305 306 306 306 306 306 306 306 306 306 306
Wind_Speed
16 17 17 18 19 19 20 21 21 22 23 24 25 26 26 26 27 29 31 34 34 35 36 36 35 36 37 37 36 35 34 34 33 33 32 31 29 29 27 26 25 25
14 15 16 17 17 18 19 19 20 21 22 23 23 24 24 25 26 27 29 31 33 33 35 35 35 36 37 38 37 36 35 35 34 34 33 32 30 29 28 27 26 25
12 13 13 14 15 16 17 18 19 20 21 22 23 23 24 25 26 28 29 30 31 33 34 35 36 37 37 38 38 37 36 36 35 35 34 33 32 30 29 28 27 26
9 10 11 12 13 14 16 17 18 19 20 20 21 22 23 25 27 28 29 30 31 32 34 35 36 37 38 38 38 37 37 36 36 35 35 34 33 31 30 29 28 27
9 10 11 11 13 14 15 16 17 17 18 18 19 21 23 25 27 29 30 31 32 33 34 35 36 37 38 38 38 38 38 37 36 36 35 35 33 32 31 30 30 29
8 10 11 12 13 15 16 16 16 16 17 17 18 20 22 24 26 28 30 31 33 34 35 36 37 38 38 38 39 40 39 38 38 37 36 35 33 32 32 31 31 30
6 8 10 12 14 16 17 17 17 17 17 18 19 20 21 23 25 27 29 31 32 33 35 36 37 38 39 39 40 41 40 39 38 37 36 35 34 33 33 33 32 31
7 8 9 11 13 15 16 17 18 18 19 19 21 21 22 23 24 26 28 30 31 33 34 35 37 38 39 40 41 41 41 40 39 38 37 36 35 35 35 34 34 33
11 11 11 12 13 14 15 16 17 18 20 21 22 22 22 23 24 25 27 29 31 32 33 34 36 37 38 40 41 42 42 41 40 39 39 37 36 36 35 35 35 33
16 16 16 16 15 15 15 15 16 18 20 22 22 23 23 23 24 25 28 30 31 32 33 34 35 37 38 39 40 42 42 41 41 40 40 39 37 37 36 36 35 34
21 21 21 20 19 18 17 17 17 18 20 21 22 23 23 24 25 27 29 30 31 32 33 34 35 36 37 38 40 41 41 41 41 40 40 39 38 37 37 36 36 35
26 26 25 24 23 21 19 19 19 20 20 21 22 23 24 25 26 28 29 30 31 32 33 34 35 35 36 37 38 39 40 40 40 40 40 39 39 38 38 37 37 36
30 29 28 27 26 23 22 21 22 21 21 22 22 24 25 26 27 28 30 31 31 32 34 34 35 36 36 37 37 38 38 39 39 39 39 39 39 38 38 38 38 37
31 30 30 30 29 26 25 24 24 23 22 23 24 25 27 27 27 28 30 32 33 33 34 35 35 36 37 37 37 37 37 37 38 38 39 39 38 38 38 38 37 37
30 29 31 33 32 30 29 27 26 25 24 24 26 27 28 28 27 28 30 32 34 34 35 35 36 37 37 37 36 36 37 37 37 37 37 37 37 37 37 37 37 37
27 28 30 33 35 33 32 29 28 27 26 26 27 28 29 28 28 28 30 32 34 35 36 36 37 37 37 36 36 36 36 36 36 36 36 36 36 36 36 36 36 36
27 28 29 31 35 35 34 31 29 28 27 27 28 29 30 30 29 30 30 32 34 35 36 37 38 37 37 36 36 35 35 35 35 35 35 35 34 34 34 34 34 33
25 27 29 31 33 35 35 32 30 30 29 28 29 30 31 31 31 31 31 31 33 35 37 38 37 37 37 36 36 35 35 34 34 34 34 34 34 33 32 31 31 31
23 26 29 31 32 34 34 33 31 31 31 29 29 30 31 32 32 32 31 31 32 35 37 38 37 37 37 36 36 36 35 34 34 34 33 33 33 32 31 31 30 31
23 25 27 29 30 31 33 33 32 32 31 30 29 30 31 32 33 32 32 32 32 34 36 37 38 37 37 36 36 36 35 34 34 33 33 32 32 31 31 31 31 31
21 23 24 25 26 29 31 32 33 32 31 29 29 30 31 32 33 33 33 32 32 33 35 36 37 37 36 36 35 35 34 34 34 33 33 33 33 32 31 31 31 31
20 21 23 24 26 28 30 31 32 31 29 29 29 30 31 31 32 33 33 33 33 33 34 35 35 35 35 35 35 34 35 35 35 35 34 34 34 33 33 33 33 32
19 20 22 25 28 29 30 30 30 29 28 28 28 29 30 31 32 32 32 32 32 32 33 33 33 34 34 35 35 36 36 36 36 36 36 35 34 34 34 34 34 34
17 19 21 24 26 27 27 27 27 27 27 26 27 28 29 30 31 32 32 32 32 32 32 33 33 33 34 35 36 36 36 36 36 36 36 35 35 34 34 33 33 33
14 16 17 19 21 22 23 24 25 25 25 25 26 28 29 30 31 32 32 32 32 32 32 33 33 33 33 34 35 35 35 35 36 36 35 35 34 34 33 33 33 32
13 12 13 15 17 19 21 22 23 24 24 25 26 28 29 30 31 32 33 33 33 33 33 32 33 32 33 33 33 34 34 34 34 34 34 35 35 35 35 34 34 33
Wind_Direction
224 228 231 232 235 236 235 235 234 233 232 231 231 232 232 232 232 231 230 230 229 227 227 226 224 223 221 220 219 217 217 218 218 219 220 221 221 222 221 220 220 220
223 226 229 231 232 233 233 233 233 233 232 232 232 231 229 227 227 227 227 229 228 227 226 225 224 223 221 220 219 217 217 217 218 218 219 220 221 221 221 220 220 220
222 226 229 232 233 234 234 233 233 232 231 231 230 229 228 227 226 225 224 225 226 225 225 223 222 222 221 221 219 218 218 217 218 218 219 220 220 221 221 221 221 220
229 231 233 235 236 236 235 234 234 233 233 233 231 231 230 228 227 225 224 223 222 223 223 222 221 220 220 220 218 218 219 219 219 219 219 220 221 221 221 222 222 221
245 245 245 245 244 243 241 240 240 239 239 239 237 235 233 230 228 226 224 223 222 221 220 220 220 219 219 218 217 217 218 218 219 219 219 220 220 221 221 222 223 222
261 259 257 255 254 252 250 249 247 245 245 244 242 240 237 234 231 229 226 224 223 221 219 218 217 217 217 216 216 217 218 218 219 219 219 220 220 220 222 223 224 224
274 272 269 265 262 260 258 256 252 249 247 245 243 242 239 236 234 231 228 225 223 222 220 218 217 216 216 216 215 217 218 218 219 219 219 220 220 220 222 223 225 225
270 271 272 271 269 267 266 264 260 257 252 247 244 241 239 236 234 232 229 226 224 222 220 219 218 217 217 216 216 217 218 218 219 219 220 220 219 220 222 223 225 225
271 270 269 270 272 272 270 267 264 261 256 251 248 244 240 236 233 231 229 227 225 223 222 220 219 219 219 218 218 218 218 219 219 219 220 220 220 221 222 223 225 226
269 269 267 269 273 276 274 267 260 258 255 252 250 246 242 237 233 230 228 227 226 224 223 222 221 220 220 220 220 220 220 220 220 221 221 221 222 222 223 224 225 226
269 266 264 265 267 271 273 269 261 255 253 252 250 247 244 239 234 230 227 227 226 226 225 224 222 222 222 222 222 221 221 221 221 222 223 223 223 223 224 225 226 227
266 264 263 262 261 262 266 267 263 257 252 251 250 248 246 241 237 233 230 229 228 227 226 225 223 223 223 222 222 221 221 221 221 222 223 224 224 224 225 226 227 227
262 262 262 261 259 259 261 262 261 259 254 251 249 247 245 242 239 236 234 231 229 227 226 224 223 223 223 222 221 221 220 220 221 221 222 223 224 224 225 226 227 227
259 260 259 257 257 256 257 257 257 258 256 250 247 245 244 242 241 238 235 232 229 226 225 223 222 222 222 221 220 220 220 221 221 222 222 223 223 224 224 226 227 227
256 255 254 252 251 252 253 254 255 256 254 250 246 244 243 242 240 238 235 232 229 226 223 222 221 221 221 221 220 220 220 220 221 222 223 223 224 224 224 225 226 227
252 248 247 246 246 248 251 252 254 255 253 249 246 244 243 241 238 237 235 232 229 226 224 222 222 222 221 220 220 220 220 220 221 221 222 223 223 223 224 225 225 226
251 245 243 242 242 244 247 250 253 254 252 248 244 243 241 239 237 236 234 232 230 227 226 224 223 222 220 219 219 219 220 221 221 222 222 223 223 223 224 225 225 226
255 248 243 241 241 242 244 248 251 253 252 248 244 242 240 239 237 236 235 233 231 228 226 225 225 223 221 219 219 219 219 220 221 222 223 223 224 224 224 225 226 226
256 250 243 242 241 240 241 245 249 252 251 248 245 242 239 238 237 235 234 232 230 228 227 225 224 223 221 220 220 219 219 219 220 222 223 224 225 225 225 225 225 225
252 248 244 243 240 237 237 242 248 251 251 249 245 241 239 237 236 234 233 232 230 228 227 225 224 223 221 221 221 220 220 220 221 222 222 222 223 224 224 225 225 225
251 247 244 241 236 233 236 242 247 249 250 249 246 243 240 238 236 234 232 231 230 227 226 225 224 222 221 220 221 221 220 220 221 221 221 221 221 221 221 222 223 223
251 247 244 240 237 238 242 245 247 248 250 250 247 244 241 238 236 234 233 232 229 227 225 224 223 221 219 218 218 219 218 218 219 219 219 220 219 219 219 219 219 220
254 251 247 244 244 246 247 247 247 248 251 251 248 245 241 238 235 233 232 231 229 227 226 223 222 219 217 217 216 216 217 217 217 218 218 218 218 217 217 216 216 217
257 254 252 249 248 247 246 246 247 250 253 253 249 246 241 236 233 230 229 228 226 226 226 224 222 219 217 216 216 216 217 217 217 217 216 216 216 215 215 215 216 217
266 260 257 252 248 245 243 245 248 252 255 253 248 244 238 233 230 227 226 224 223 223 223 223 222 219 216 216 216 216 216 216 216 216 215 215 215 215 214 214 215 216
289 275 264 255 251 249 249 251 253 254 254 251 245 239 233 229 227 224 223 222 220 219 219 219 219 218 216 216 215 215 215 215 216 216 216 215 214 214 214 214 214 215